Simultaneous Nadir Overpasses (SNOs) Predictions

Prediction of SNOs between GOES-16 and NPP Satellite Orbit:

Table of predicted SNOs for the next 14.0 days since TLE Epoch: 2/28/2025
Index Date Time (GOES-16) GOES-16 Lat,Lon NPP Lat,Lon Distance(km) Time Diff (sec)
1 03/01/2025 06:39:24 -0.06, -75.20 0.59, -78.05 325.69 80
2 03/02/2025 06:17:59 -0.06, -75.20 -0.43, -73.52 191.78 80
3 03/03/2025 18:39:53 0.06, -75.21 -0.76, -78.81 410.61 80
4 03/04/2025 18:23:48 0.06, -75.22 0.27, -74.27 107.32 80
5 03/06/2025 06:45:34 -0.06, -75.23 0.91, -79.53 490.39 80
6 03/07/2025 06:24:08 -0.06, -75.24 -0.13, -75.00 27.59 80
7 03/09/2025 18:27:16 0.04, -75.26 -0.06, -75.75 55.77 80
8 03/10/2025 18:11:11 0.04, -75.27 0.98, -71.22 463.21 80
9 03/12/2025 06:32:56 -0.03, -75.31 0.23, -76.47 132.26 80
10 03/13/2025 06:11:30 -0.03, -75.33 -0.77, -71.92 387.03 80
11 03/14/2025 18:33:24 0.03, -75.35 -0.39, -77.22 212.99 80
